Hourly Data Report for February 20, 2021

KUGAARUK CLIMATE
NUNAVUT
Current Station Operator: ECCC - MSC

68°32'15.060" N
89°47'47.020" W
15.80 m
2303094
71407
NBB

Download Data

Hourly Data (February 2021)
Hourly Data Report for February 20, 2021
TIME
LST
Temp Definition
°C
Dew Point Definition
°C
Rel Hum Definition
%
Precip. Amount Definition
mm

Wind Dir Definition
10's deg

Wind Spd Definition
km/h
Visibility Definition
km
Stn Press Definition
kPa
Hmdx Definition


Wind Chill Definition


Weather Definition


00:00 -36.2 -39.7 70 0.0 6 20   100.42   -51 LegendNANA
01:00 -34.4 -37.8 71 0.0 6 20   100.37   -49 LegendNANA
02:00 -34.4 -37.8 71 0.0 3 22   100.30   -49 LegendNANA
03:00 -32.0 -35.3 72 0.0 7 17   100.20   -45 LegendNANA
04:00 -30.7 -33.9 73 0.0 7 21   100.11   -44 LegendNANA
05:00 -28.8 -31.9 74 0.0 14 34   99.96   -45 LegendNANA
06:00 -28.2 -31.4 74 0.0 14 44   99.82   -46 LegendNANA
07:00 -27.7 -30.9 74 0.0 13 38   99.78   -44 LegendNANA
08:00 -27.2 -30.3 75 0.0 12 31   99.68   -42 LegendNANA
09:00 -26.6 -29.8 75 0.2 14 48   99.53   -44 LegendNANA
10:00 -25.9 -29.1 75 0.0 14 48   99.45   -43 LegendNANA
11:00 -25.3 -28.5 75 0.0 15 53   99.35   -43 LegendNANA
12:00 -24.6 -27.7 75 0.2 14 47   99.26   -41 LegendNANA
13:00 -23.7 -26.8 75 0.0 14 49   99.18   -40 LegendNANA
14:00 -23.0 -26.1 76 0.0 15 48   99.12   -39 LegendNANA
15:00 -22.3 -25.3 77 0.0 15 42   99.09   -37 LegendNANA
16:00 -21.6 -24.5 77 0.2 15 38   99.06   -36 LegendNANA
17:00 -21.1 -24.0 78 0.0 15 35   99.02   -35 LegendNANA
18:00 -20.9 -24.0 76 0.0 15 28   99.02   -33 LegendNANA
19:00 -20.5 -23.5 77 0.0 15 28   98.96   -33 LegendNANA
20:00 -20.6 -23.8 76 0.0 15 26   98.92   -33 LegendNANA
21:00 -21.3 -24.6 75 0.0 16 22   98.90   -33 LegendNANA
22:00 -21.2 -24.5 75 0.0 33 8   98.93   -28 LegendNANA
23:00 -22.2 -25.2 77 0.0 10 4   98.93   -26 LegendNANA

Notes on Data Quality.

Legend

  • E = Estimated
  • M = Missing
  • NA = Not Available*
  • [empty] = Indicates an unobserved value
Date modified: